DW4028 Weather Reports


time (UTC)temp
C
wind
direction
speed
KPH
gust
KPH
rain 1hr
cm
rain 24hr
cm
rain mn
cm
humidity
%
barometer
mb
20260505041520 10 132 3.2 9.7 0.00 0.00 0.00 82 1012.0
20260505040026 10 155 3.2 8.0 0.00 0.00 0.00 81 1011.9
20260505034511 10 150 1.6 11.3 0.00 0.00 0.00 79 1011.9
20260505033023 10 168 1.6 12.9 0.00 0.00 0.00 78 1011.8
20260505031526 11 137 4.8 9.7 0.00 0.00 0.00 76 1011.9
20260505030016 11 177 4.8 11.3 0.00 0.00 0.00 75 1012.0
20260505024526 11 158 3.2 11.3 0.00 0.00 0.00 75 1012.0
20260505023026 11 132 1.6 8.0 0.00 0.00 0.00 73 1012.0
20260505021520 11 159 3.2 11.3 0.00 0.00 0.00 72 1012.0
20260505020023 11 188 3.2 14.5 0.00 0.00 0.00 71 1012.0
20260505014529 12 173 4.8 14.5 0.00 0.00 0.00 70 1011.9
20260505013015 12 156 3.2 12.9 0.00 0.00 0.00 69 1011.8
20260505011511 12 167 4.8 12.9 0.00 0.00 0.00 67 1011.6
20260505010017 12 169 4.8 20.9 0.00 0.00 0.00 64 1011.3
20260505004507 13 173 8.0 20.9 0.00 0.00 0.00 62 1011.0
20260505003011 13 140 6.4 12.9 0.00 0.00 0.00 59 1010.7
20260505001523 13 157 4.8 14.5 0.00 0.00 0.00 57 1010.4
20260505000011 13 169 6.4 17.7 0.00 0.00 0.00 56 1010.2
20260504234516 15 229 4.8 19.3 0.00 0.00 0.00 53 1009.9
20260504233006 15 238 4.8 20.9 0.00 0.00 0.00 52 1009.8
20260504231512 15 108 9.7 17.7 0.00 0.00 0.00 51 1009.6
20260504230019 16 43 4.8 24.1 0.00 0.00 0.00 45 1009.4
20260504224508 17 91 11.3 29.0 0.00 0.00 0.00 44 1009.2
20260504223005 17 158 3.2 27.4 0.00 0.00 0.00 43 1009.0
20260504221504 17 134 11.3 29.0 0.00 0.00 0.00 42 1008.8
20260504220006 18 142 11.3 40.2 0.00 0.00 0.00 42 1008.9
20260504214506 18 137 6.4 27.4 0.00 0.00 0.00 42 1008.8
20260504213010 18 186 9.7 27.4 0.00 0.00 0.00 42 1008.6
20260504211529 18 148 16.1 29.0 0.00 0.00 0.00 41 1008.5
20260504210024 19 195 11.3 29.0 0.00 0.00 0.00 39 1008.4
20260504204508 19 250 8.0 27.4 0.00 0.00 0.00 39 1008.4
20260504203013 19 294 12.9 25.7 0.00 0.00 0.00 38 1008.2
20260504201517 19 256 12.9 25.7 0.00 0.00 0.00 36 1008.3
20260504200018 19 201 12.9 30.6 0.00 0.00 0.00 36 1008.3
20260504194516 20 238 8.0 19.3 0.00 0.00 0.00 33 1008.5
20260504193018 20 231 4.8 19.3 0.00 0.00 0.00 32 1008.4
20260504191528 21 291 9.7 29.0 0.00 0.00 0.00 30 1008.4
20260504190019 20 324 9.7 29.0 0.00 0.00 0.00 31 1008.7
20260504184510 20 227 8.0 29.0 0.00 0.00 0.00 30 1008.9
20260504183020 20 222 11.3 29.0 0.00 0.00 0.00 30 1009.0
20260504181522 20 164 8.0 27.4 0.00 0.00 0.00 29 1009.0
20260504180018 20 248 4.8 29.0 0.00 0.00 0.00 29 1009.1
20260504174523 20 278 9.7 29.0 0.00 0.00 0.00 30 1009.0
20260504173022 20 240 11.3 27.4 0.00 0.00 0.00 28 1009.1
20260504171524 20 275 9.7 25.7 0.00 0.00 0.00 31 1009.1
20260504081515 6 161 1.6 4.8 0.00 0.00 0.00 61 1011.2
20260504050004 5 248 0.0 3.2 0.00 0.00 0.00 61 1011.3